SV2MJJ Weather Reports


Display with metric or nautical units.
time (UTC)temp
F
wind
direction
speed
MPH
gust
MPH
rain 1hr
in
rain 24hr
in
rain mn
in
humidity
%
barometer
mb
20240416230619 68 356 2.0 9.0 0.00 0.00 0.00 69 998.9
20240416225618 68 296 0.0 4.0 0.00 0.00 0.00 69 999.0
20240416224623 68 279 1.0 8.0 0.00 0.00 0.00 70 998.9
20240416223619 67 170 1.0 5.0 0.00 0.00 0.00 70 999.1
20240416222619 67 198 0.0 5.0 0.00 0.00 0.00 72 999.5
20240416221617 68 181 0.0 0.0 0.00 0.00 0.00 71 999.4
20240416220613 67 199 0.0 1.0 0.00 0.00 0.00 72 999.3
20240416215618 67 291 1.0 4.0 0.00 0.00 0.00 72 999.5
20240416214613 68 230 1.0 5.0 0.00 0.00 0.00 71 999.5
20240416213834 68 257 0.0 4.0 0.00 0.00 0.00 72 999.7
20240416212609 68 285 0.0 0.0 0.00 0.00 0.00 73 999.7
20240416211609 68 286 0.0 4.0 0.00 0.00 0.00 73 999.6
20240416210611 68 263 1.0 4.0 0.00 0.00 0.00 72 999.6
20240416205608 68 274 1.0 4.0 0.00 0.00 0.00 71 999.6
20240416204609 68 209 0.0 0.0 0.00 0.00 0.00 72 999.7
20240416203609 69 213 0.0 0.0 0.00 0.00 0.00 72 999.8
20240416202608 69 228 0.0 7.0 0.00 0.00 0.00 72 999.8
20240416201607 69 282 2.0 9.0 0.00 0.00 0.00 72 999.7
20240416200606 69 248 0.0 3.0 0.00 0.00 0.00 72 1000.0
20240416195607 69 304 1.0 7.0 0.00 0.00 0.00 72 1000.0
20240416194606 70 293 0.0 1.0 0.00 0.00 0.00 71 1000.0
20240416193607 70 281 1.0 9.0 0.00 0.00 0.00 69 1000.0
20240416192607 71 310 1.0 4.0 0.00 0.00 0.00 69 1000.1
20240416191607 71 294 3.0 8.0 0.00 0.00 0.00 69 1000.2
20240416190606 71 228 1.0 5.0 0.00 0.00 0.00 69 1000.3
20240416185603 71 250 1.0 6.0 0.00 0.00 0.00 68 1000.2
20240416184602 71 280 0.0 3.0 0.00 0.00 0.00 69 1000.3
20240416183603 72 284 0.0 1.0 0.00 0.00 0.00 69 1000.2
20240416182816 72 282 0.0 0.0 0.00 0.00 0.00 69 1000.3
20240416181812 72 209 0.0 0.0 0.00 0.00 0.00 68 1000.2
20240416180601 72 282 1.0 6.0 0.00 0.00 0.00 68 999.9
20240416175602 72 259 1.0 6.0 0.00 0.00 0.00 68 999.7
20240416174600 73 305 0.0 0.0 0.00 0.00 0.00 67 999.8
20240416173601 73 263 0.0 0.0 0.00 0.00 0.00 67 1000.0
20240416172603 73 252 0.0 3.0 0.00 0.00 0.00 68 1000.1
20240416171601 73 282 1.0 4.0 0.00 0.00 0.00 68 1000.0
20240416170814 73 280 1.0 7.0 0.00 0.00 0.00 68 1000.0
20240416165601 73 298 2.0 5.0 0.00 0.00 0.00 68 1000.1
20240416164810 74 282 0.0 4.0 0.00 0.00 0.00 67 1000.2
20240416163600 74 305 1.0 6.0 0.00 0.00 0.00 67 1000.1
20240416162812 74 297 0.0 3.0 0.00 0.00 0.00 66 1000.1
20240416161602 74 302 0.0 0.0 0.00 0.00 0.00 65 1000.2
20240416160559 75 299 0.0 0.0 0.00 0.00 0.00 64 1000.2
20240416155559 75 309 1.0 6.0 0.00 0.00 0.00 63 1000.2
20240416154559 75 329 2.0 9.0 0.00 0.00 0.00 63 1000.1
20240416153600 75 31 1.0 5.0 0.00 0.00 0.00 61 1000.4
20240416152558 76 336 2.0 10.0 0.00 0.00 0.00 61 1000.5
20240416151559 76 330 1.0 7.0 0.00 0.00 0.00 61 1000.5
20240416150601 76 10 1.0 5.0 0.00 0.00 0.00 61 1000.5
20240416145556 76 346 2.0 8.0 0.00 0.00 0.00 61 1000.7
20240416144806 77 315 3.0 10.0 0.00 0.00 0.00 60 1000.6
20240416143807 77 1 1.0 6.0 0.00 0.00 0.00 59 1000.8
20240416142554 77 11 0.0 4.0 0.00 0.00 0.00 59 1000.9
20240416141555 77 329 1.0 6.0 0.00 0.00 0.00 59 1001.1
20240416140552 77 343 1.0 4.0 0.00 0.00 0.00 60 1001.1
20240416135553 77 344 0.0 5.0 0.00 0.00 0.00 59 1001.3
20240416134553 78 16 1.0 4.0 0.00 0.00 0.00 58 1001.3
20240416133554 78 329 0.0 4.0 0.00 0.00 0.00 56 1001.5
20240416132554 78 29 1.0 5.0 0.00 0.00 0.00 57 1001.6
20240416131555 78 55 0.0 0.0 0.00 0.00 0.00 56 1001.8
20240416130553 78 55 0.0 0.0 0.00 0.00 0.00 56 1001.9
20240416125552 78 55 0.0 1.0 0.00 0.00 0.00 55 1002.1
20240416124552 78 70 0.0 3.0 0.00 0.00 0.00 57 1002.2
20240416123551 79 101 0.0 6.0 0.00 0.00 0.00 57 1002.3
20240416122555 79 82 0.0 1.0 0.00 0.00 0.00 58 1002.4
20240416121805 78 34 1.0 5.0 0.00 0.00 0.00 59 1002.7
20240416120553 78 34 0.0 4.0 0.00 0.00 0.00 59 1003.0
20240416115558 78 38 0.0 4.0 0.00 0.00 0.00 58 1003.2
20240416114552 77 40 0.0 0.0 0.00 0.00 0.00 59 1003.5
20240416112548 77 94 0.0 2.0 0.00 0.00 0.00 59 1003.7
20240416111542 78 94 0.0 4.0 0.00 0.00 0.00 58 1003.8
20240416110542 78 65 0.0 4.0 0.00 0.00 0.00 57 1003.8
20240416105753 78 44 0.0 4.0 0.00 0.00 0.00 57 1003.8
20240416104540 77 41 0.0 1.0 0.00 0.00 0.00 58 1003.9
20240416103538 77 40 0.0 0.0 0.00 0.00 0.00 58 1004.1
20240416102539 76 40 0.0 0.0 0.00 0.00 0.00 59 1004.2
20240416101539 76 338 0.0 1.0 0.00 0.00 0.00 59 1004.3
20240416100538 76 338 0.0 3.0 0.00 0.00 0.00 60 1004.5
20240416095537 76 356 0.0 0.0 0.00 0.00 0.00 59 1004.6
20240416094534 76 356 0.0 0.0 0.00 0.00 0.00 59 1004.6
20240416093537 76 351 0.0 4.0 0.00 0.00 0.00 60 1004.6
20240416092540 76 1 0.0 5.0 0.00 0.00 0.00 59 1004.9
20240416091537 76 22 0.0 4.0 0.00 0.00 0.00 58 1004.7
20240416090535 76 80 0.0 3.0 0.00 0.00 0.00 58 1004.9
20240416085744 76 70 0.0 3.0 0.00 0.00 0.00 58 1004.9
20240416084534 76 84 0.0 2.0 0.00 0.00 0.00 56 1004.9
20240416083535 75 82 0.0 3.0 0.00 0.00 0.00 60 1004.8
20240416082747 74 72 0.0 3.0 0.00 0.00 0.00 60 1005.1
20240416081530 73 340 0.0 3.0 0.00 0.00 0.00 64 1005.1
20240416080531 72 343 0.0 0.0 0.00 0.00 0.00 66 1005.2
20240416075744 72 342 0.0 1.0 0.00 0.00 0.00 67 1005.3
20240416074529 72 300 0.0 0.0 0.00 0.00 0.00 68 1005.5
20240416073530 71 290 0.0 1.0 0.00 0.00 0.00 68 1005.6
20240416072527 71 290 0.0 0.0 0.00 0.00 0.00 69 1005.5
20240416070524 71 259 0.0 0.0 0.00 0.00 0.00 69 1005.5
20240416065521 70 259 0.0 2.0 0.00 0.00 0.00 70 1005.7
20240416064520 70 246 0.0 2.0 0.00 0.00 0.00 70 1005.8
20240416063518 70 223 0.0 0.0 0.00 0.00 0.00 72 1005.7
20240416062520 70 223 0.0 0.0 0.00 0.00 0.00 71 1005.6
20240416061520 69 223 0.0 0.0 0.00 0.00 0.00 71 1005.6
20240416060520 69 223 0.0 0.0 0.00 0.00 0.00 70 1005.8
20240416055525 68 255 0.0 2.0 0.00 0.00 0.00 69 1005.8
20240416054519 67 255 1.0 3.0 0.00 0.00 0.00 68 1005.9
20240416053519 67 254 0.0 0.0 0.00 0.00 0.00 67 1005.8
20240416052519 66 201 0.0 4.0 0.00 0.00 0.00 68 1005.9
20240416051522 66 219 0.0 0.0 0.00 0.00 0.00 68 1005.9
20240416050516 65 220 1.0 4.0 0.00 0.00 0.00 69 1005.9
20240416045517 65 223 0.0 3.0 0.00 0.00 0.00 71 1006.2
20240416044519 65 277 0.0 0.0 0.00 0.00 0.00 72 1006.1
20240416043519 65 277 0.0 0.0 0.00 0.00 0.00 72 1006.2
20240416042521 64 277 1.0 4.0 0.00 0.00 0.00 73 1006.0
20240416041511 64 284 0.0 3.0 0.00 0.00 0.00 74 1006.1
20240416040517 65 284 0.0 0.0 0.00 0.00 0.00 74 1005.9
20240416035513 64 285 0.0 4.0 0.00 0.00 0.00 74 1005.9
20240416034512 65 269 0.0 2.0 0.00 0.00 0.00 76 1005.9
20240416033512 64 269 0.0 0.0 0.00 0.00 0.00 76 1005.9
20240416032515 64 269 1.0 4.0 0.00 0.00 0.00 74 1005.9
20240416031510 65 279 0.0 0.0 0.00 0.00 0.00 76 1005.8
20240416030507 65 279 0.0 0.0 0.00 0.00 0.00 75 1005.8
20240416025508 65 279 0.0 0.0 0.00 0.00 0.00 74 1005.9
20240416024509 65 279 0.0 0.0 0.00 0.00 0.00 74 1005.8
20240416023509 66 279 0.0 0.0 0.00 0.00 0.00 73 1006.0
20240416022720 66 279 0.0 2.0 0.00 0.00 0.00 73 1006.0
20240416021509 66 279 0.0 0.0 0.00 0.00 0.00 72 1006.0
20240416020508 66 279 0.0 0.0 0.00 0.00 0.00 72 1006.0
20240416015717 66 279 0.0 3.0 0.00 0.00 0.00 72 1006.1
20240416014507 66 290 0.0 3.0 0.00 0.00 0.00 71 1006.1
20240416013509 66 292 0.0 0.0 0.00 0.00 0.00 71 1006.1
20240416012715 66 307 0.0 0.0 0.00 0.00 0.00 72 1006.1
20240416011507 66 306 0.0 0.0 0.00 0.00 0.00 72 1006.2
20240416010505 66 306 0.0 0.0 0.00 0.00 0.00 72 1006.2
20240416005718 66 307 0.0 1.0 0.00 0.00 0.00 72 1006.3
20240416004503 66 302 0.0 4.0 0.00 0.00 0.00 71 1006.5
20240416003505 65 280 0.0 3.0 0.00 0.00 0.00 72 1006.5
20240416002716 65 253 1.0 4.0 0.00 0.00 0.00 73 1006.5
20240416001501 66 163 0.0 0.0 0.00 0.00 0.00 74 1006.8
20240416000501 66 133 0.0 0.0 0.00 0.00 0.00 76 1006.9
20240415235503 65 132 0.0 0.0 0.00 0.00 0.00 75 1007.1
20240415234505 66 134 2.0 5.0 0.00 0.00 0.00 75 1007.2
20240415233501 66 148 1.0 5.0 0.00 0.00 0.00 74 1007.3
20240415232711 66 235 0.0 0.0 0.00 0.00 0.00 73 1007.3